Regional Weather Roundup
Issued by NWS

Home | Current Version | Previous Version | Graphics & Text | Print | Product List | Glossary On
Versions: 1 2 3 4 5 6 7 8 9 10 11 12 13 14 15 16 17 18 19 20 21 22 23 24 25 26 27 28 29 30 31 32 33 34 35 36 37 38 39 40 41 42 43 44 45 46 47 48 49 50
000
ASUS43 KLOT 250600
RWRIL

ILLINOIS REGIONAL WEATHER ROUNDUP
NATIONAL WEATHER SERVICE CHICAGO/ROMEOVILLE IL
100 AM CDT SAT APR 25 2015

NOTE: "FAIR" INDICATES FEW OR NO CLOUDS BELOW 12,000 FEET WITH NO
SIGNIFICANT WEATHER AND/OR OBSTRUCTIONS TO VISIBILITY.

* THESE STATIONS ARE NOT UNDER NWS QUALITY CONTROL. THEY ALSO MAY NOT
  REPORT WEATHER SUCH AS PRECIPITATION OR FOG.

ILZ001-002-007-009-015-016-024-250700-
NORTHWEST ILLINOIS

CITY           SKY/WX    TMP DP  RH WIND       PRES   REMARKS
MOLINE         LGT RAIN  46  39  76 E14       29.75F
6HR MIN TEMP:  46; 6HR MAX TEMP:  50; 6HR PCP:  0.02;

STERLING*      CLOUDY    43  37  81 E22G28    29.80F
$$

ILZ003-004-008-010-011-017-018-250700-
NORTH CENTRAL ILLINOIS

CITY           SKY/WX    TMP DP  RH WIND       PRES   REMARKS
ROCKFORD       CLOUDY    42  35  76 E16G26    29.87F
6HR MIN TEMP:  42; 6HR MAX TEMP:  44; 6HR PCP:  0.06;

$$

ILZ005-006-012>014-019>023-250700-
NORTHEAST ILLINOIS

CITY           SKY/WX    TMP DP  RH WIND       PRES   REMARKS
CHICAGO-OHARE  CLOUDY    41  37  86 NE13      29.89F
6HR MIN TEMP:  41; 6HR MAX TEMP:  47; 6HR PCP:  0.16;

CHICAGO-MIDWAY CLOUDY    45  40  82 E14       29.87F
6HR MIN TEMP:  42; 6HR MAX TEMP:  51; 6HR PCP:  0.29;

AURORA         CLOUDY    42  36  79 NE17G25   29.86F
6HR MIN TEMP:  41; 6HR MAX TEMP:  52; 6HR PCP:  0.43;

WAUKEGAN       CLOUDY    39  36  89 NE12G22   29.92F WCI  32
6HR MIN TEMP:  38; 6HR MAX TEMP:  41; 6HR PCP:  0.25;

DUPAGE AIRPORT CLOUDY    41  37  86 NE10      29.88S
6HR MIN TEMP:  40; 6HR MAX TEMP:  48; 6HR PCP:  0.38;

WHEELING       CLOUDY    41  36  82 E12       29.92F
6HR MIN TEMP:  40; 6HR MAX TEMP:  44; 6HR PCP:  0.06;

NORTHERLY ISL    N/A     43  38  82 NE15        N/A
$$

LMZ740>746-250700-
SOUTHERN LAKE MICHIGAN

STATION/POSITION SKY/WX   TEMP    WIND        PRES    VSBY  WAVE
                          AIR SEA DIR/SP/G                  HT/PER
                          (F)     (DEG/KT/KT) (MB)    (MI)  (FT/S)
HARRISON CRIB              40      70/ 19/ 22   N/A
BURNHAM HARBOR             42      70/ 14/ 16   N/A
CALUMET HARBOR             43      40/ 12/ 15   N/A
BURNS HARBOR               46      40/ 11/ 12 1013.5R
MICHIGAN CITY              44      40/ 10/ 12   N/A
MICHIGAN CITY 6N           44 44   80/ 12/ 16   N/A           3/ 4
$$

ILZ025>027-034>036-040-047-049-050-058-095>099-250700-
WEST-CENTRAL ILLINOIS

CITY           SKY/WX    TMP DP  RH WIND       PRES   REMARKS
QUINCY         MOCLDY    53  48  83 SE9       29.67F
$$

ILZ028>032-037-038-041>044-048-051>054-059>061-250700-
CENTRAL ILLINOIS

CITY           SKY/WX    TMP DP  RH WIND       PRES   REMARKS
DECATUR        LGT RAIN  53  40  61 E6        29.77F
PEORIA         CLOUDY    55  41  59 E6        29.76F
6HR MIN TEMP:  55; 6HR MAX TEMP:  61; 6HR PCP:  0.02;

SPRINGFIELD    CLOUDY    56  42  59 SE9       29.74F
6HR MIN TEMP:  56; 6HR MAX TEMP:  60; 6HR PCP: TRACE;

TAYLORVILLE    NOT AVBL
$$

ILZ033-039-045-046-055>057-062-063-250700-
EAST-CENTRAL ILLINOIS

CITY           SKY/WX    TMP DP  RH WIND       PRES   REMARKS
CHAMPAIGN      CLOUDY    52  42  69 E8        29.81F
MATTOON        CLOUDY    55  38  52 SE9       29.78F
$$

ILZ079-100>102-250700-
SOUTHWEST ILLINOIS

CITY           SKY/WX    TMP DP  RH WIND       PRES   REMARKS
BELLEVILLE     CLOUDY    55  48  75 SE5       29.73F
CAHOKIA*       CLOUDY    55  47  74 SE6       29.73F
$$

ILZ064>066-069>071-074>076-080>082-084>086-088>090-092>094-250700-
SOUTH-CENTRAL ILLINOIS

CITY           SKY/WX    TMP DP  RH WIND       PRES   REMARKS
CARBONDALE     CLOUDY    57  46  66 SE8       29.76F
6HR MIN TEMP:  55; 6HR MAX TEMP:  57;

MT. VERNON     CLOUDY    55  39  54 SE5       29.78F
$$

ILZ067-068-072-073-078-083-087-091-250700-
SOUTHEAST ILLINOIS

CITY           SKY/WX    TMP DP  RH WIND       PRES   REMARKS
LAWRENCEVILLE  CLOUDY    55  43  63 SE8       29.81F
$$

ABBREVIATIONS USED IN REMARKS
   TC - TEMPERATURE IN CELSIUS
  WCI - WIND CHILL INDEX
   HX - HEAT INDEX
  VSB - VISIBILITY
$$




USA.gov is the U.S. government's official web portal to all federal, state and local government web resources and services.